EW2817 Weather Reports


time (UTC)temp
F
wind
direction
speed
knots
gust
knots
rain 1hr
in
rain 24hr
in
rain mn
in
humidity
%
barometer
mb
20260905192705 77 0 0.0 0.0 0.30 0.30 0.30 94 987.8
20260905191204 78 0 0.0 0.0 0.29 0.29 0.29 93 987.2
20260905185705 82 0 0.0 0.0 0.29 0.29 0.29 80 987.5
20260905184205 93 0 0.0 0.0 0.00 0.00 0.00 57 987.5
20260905182704 97 0 0.0 0.0 0.00 0.00 0.00 54 986.8
20260905181203 98 0 0.0 0.0 0.00 0.00 0.00 52 986.4
20260905175702 98 0 0.0 0.0 0.00 0.00 0.00 52 986.8
20260905174159 99 0 0.0 0.0 0.00 0.00 0.00 55 987.1
20260905172658 98 0 0.0 0.0 0.00 0.00 0.00 51 987.8
20260905171857 99 0 0.0 0.0 0.00 0.00 0.00 53 988.0
20260905165656 97 0 0.0 0.0 0.00 0.00 0.00 56 988.2
20260905164155 97 0 0.0 0.0 0.00 0.00 0.00 54 988.4
20260905162655 96 0 0.0 0.0 0.00 0.00 0.00 56 988.6
20260905161152 95 0 0.0 0.0 0.00 0.00 0.00 60 988.9
20260905161033 95 0 0.0 0.0 0.00 0.00 0.00 58 989.0
20260905154142 94 0 0.0 0.0 0.00 0.00 0.00 60 989.1
20260905153337 92 0 0.0 0.0 0.00 0.00 0.00 64 989.3
20260905151138 91 0 0.0 0.0 0.00 0.00 0.00 66 989.4
20260905145638 90 0 0.0 0.0 0.00 0.00 0.00 70 989.4
20260905144138 88 0 0.0 0.0 0.00 0.00 0.00 73 989.4
20260905142636 87 0 0.0 0.0 0.00 0.00 0.00 75 989.4
20260905141134 85 0 0.0 0.0 0.00 0.00 0.00 78 989.3
20260905135634 82 0 0.0 0.0 0.00 0.00 0.00 83 989.2
20260905134846 80 0 0.0 0.0 0.00 0.00 0.00 89 989.1
20260905132631 78 0 0.0 0.0 0.00 0.00 0.00 92 989.1
20260905131132 76 0 0.0 0.0 0.00 0.00 0.00 93 989.1
20260905125632 76 0 0.0 0.0 0.00 0.00 0.00 93 989.1
20260905124130 75 0 0.0 0.0 0.00 0.00 0.00 93 989.2
20260905122630 75 0 0.0 0.0 0.00 0.00 0.00 94 989.3
20260905121129 74 0 0.0 0.0 0.00 0.00 0.00 94 989.3
20260905115629 74 0 0.0 0.0 0.00 0.00 0.00 94 989.3
20260905114127 74 0 0.0 0.0 0.00 0.00 0.00 94 989.0
20260905113320 74 0 0.0 0.0 0.00 0.00 0.00 94 988.9
20260905111125 74 0 0.0 0.0 0.00 0.00 0.00 93 988.8
20260905105624 74 0 0.0 0.0 0.00 0.00 0.00 93 988.7
20260905104118 75 0 0.0 0.0 0.00 0.00 0.00 92 988.6
20260905102618 75 0 0.0 0.0 0.00 0.00 0.00 92 988.5
20260905101804 75 0 0.0 0.0 0.00 0.00 0.00 92 988.5
20260905100957 75 0 0.0 0.0 0.00 0.00 0.00 92 988.4
20260905094116 75 0 0.0 0.0 0.00 0.00 0.00 92 988.3
20260905092615 75 0 0.0 0.0 0.00 0.00 0.00 92 988.3
20260905091113 75 0 0.0 0.0 0.00 0.00 0.00 90 988.3
20260905090312 76 0 0.0 0.0 0.00 0.00 0.00 90 988.4
20260905084116 76 0 0.0 0.0 0.00 0.00 0.00 89 988.6
20260905082608 76 0 0.0 0.0 0.00 0.00 0.00 89 988.9
20260905081108 77 0 0.0 0.0 0.00 0.00 0.00 89 989.2
20260905075605 77 0 0.0 0.0 0.00 0.00 0.00 88 989.4
20260905074757 77 0 0.0 0.0 0.00 0.00 0.00 88 989.5
20260905073252 77 0 0.0 0.0 0.00 0.00 0.00 87 989.5
20260905071102 77 0 0.0 0.0 0.00 0.00 0.00 87 989.5
20260905065559 78 0 0.0 0.0 0.00 0.00 0.00 87 989.6
20260905064058 78 0 0.0 0.0 0.00 0.00 0.00 86 989.8
20260905062554 78 0 0.0 0.0 0.00 0.00 0.00 86 990.0
20260905061053 78 0 0.0 0.0 0.00 0.00 0.00 86 990.3
20260905055553 78 0 0.0 0.0 0.00 0.00 0.00 86 990.4
20260905054051 78 0 0.0 0.0 0.00 0.00 0.00 86 990.7
20260905052551 79 0 0.0 0.0 0.00 0.00 0.00 85 991.0
20260905052434 79 0 0.0 0.0 0.00 0.00 0.00 84 991.3
20260905045550 79 0 0.0 0.0 0.00 0.00 0.00 84 991.4
20260905044057 79 0 0.0 0.0 0.00 0.00 0.00 83 991.5
20260905042553 79 0 0.0 0.0 0.00 0.00 0.00 82 991.7
20260905041050 79 0 0.0 0.0 0.00 0.00 0.00 82 991.7
20260905035548 79 0 0.0 0.0 0.00 0.00 0.00 80 991.7
20260905034049 79 0 0.0 0.0 0.00 0.00 0.00 80 991.8
20260905032550 79 0 0.0 0.0 0.00 0.00 0.00 79 991.6
20260905031050 80 0 0.0 0.0 0.00 0.00 0.00 77 991.6
20260905025550 80 0 0.0 0.0 0.00 0.00 0.00 77 991.5
20260905024051 80 0 0.0 0.0 0.00 0.00 0.00 77 991.5
20260905023250 80 0 0.0 0.0 0.00 0.00 0.00 76 991.5
20260905021048 80 0 0.0 0.0 0.00 0.00 0.00 75 991.4
20260905015546 81 0 0.0 0.0 0.00 0.00 0.00 75 991.6
20260905014045 81 0 0.0 0.0 0.00 0.00 0.00 74 991.7
20260905012545 81 0 0.0 0.0 0.00 0.00 0.00 73 991.6
20260905011046 82 0 0.0 0.0 0.00 0.00 0.00 73 991.0
20260905005545 82 0 0.0 0.0 0.00 0.00 0.00 71 989.5
20260905004744 82 0 0.0 0.0 0.00 0.00 0.00 70 989.1
20260905002543 83 0 0.0 0.0 0.00 0.00 0.00 69 989.3
20260905001043 83 0 0.0 0.0 0.00 0.00 0.00 68 989.5
20260904235543 84 0 0.0 0.0 0.00 0.00 0.00 71 989.8
20260904234043 84 0 0.0 0.0 0.00 0.00 0.00 73 990.0
20260904232541 85 0 0.0 0.0 0.00 0.00 0.00 74 990.3
20260904231041 86 0 0.0 0.0 0.00 0.00 0.00 72 990.1
20260904225540 86 0 0.0 0.0 0.00 0.00 0.00 75 989.6
20260904224039 87 0 0.0 0.0 0.00 0.00 0.00 75 989.4
20260904222540 88 0 0.0 0.0 0.00 0.00 0.00 74 989.7
20260904221039 88 0 0.0 0.0 0.00 0.00 0.00 75 989.6
20260904215537 88 0 0.0 0.0 0.00 0.00 0.00 74 989.6
20260904214035 89 0 0.0 0.0 0.00 0.00 0.00 72 989.7
20260904212534 89 0 0.0 0.0 0.00 0.00 0.00 71 989.6
20260904211033 90 0 0.0 0.0 0.00 0.00 0.00 70 989.6
20260904205533 90 0 0.0 0.0 0.00 0.00 0.00 68 989.5
20260904204031 92 0 0.0 0.0 0.00 0.00 0.00 63 989.4
20260904203225 94 0 0.0 0.0 0.00 0.00 0.00 57 989.5
20260904201727 96 0 0.0 0.0 0.00 0.00 0.00 53 989.7
20260904200226 97 0 0.0 0.0 0.00 0.00 0.00 60 990.3
20260904194025 97 0 0.0 0.0 0.00 0.00 0.00 57 990.4